Location: Unspecified
(0.0000°N, 0.0000°E)
Time: 00:48:21
(UTC+02:00)

Cosmos 2219 - Visible Passes

Search period start: 29 June 2017 00:00
Search period end: 09 July 2017 00:00
Orbit: 834 x 860 km, 71.1° (Epoch: 28 June)

Date Brightness Start Highest point End Pass type
(mag) Time Alt. Az. Time Alt. Az. Time Alt. Az.
29 Jun 4.1 06:33:13 10° N 06:38:46 52° ENE 06:44:19 10° SSE visible
30 Jun 4.1 06:19:47 10° N 06:25:18 50° ENE 06:30:50 10° SSE visible
01 Jul 4.1 06:06:20 10° N 06:11:51 48° ENE 06:17:21 10° SSE visible
02 Jul 4.1 05:52:54 10° N 05:58:23 47° ENE 06:03:52 10° SSE visible
03 Jul 4.2 05:39:28 10° N 05:44:55 45° ENE 05:50:22 10° SSE visible
03 Jul 4.8 07:26:36 10° W 07:28:48 12° WSW 07:31:01 10° SW visible
04 Jul 4.2 05:26:02 10° N 05:31:27 44° ENE 05:31:30 44° ENE visible
04 Jul 5.1 07:12:55 10° W 07:13:01 10° W 07:13:01 10° W visible
05 Jul 5.3 05:12:36 10° N 05:14:26 20° NNE 05:14:26 20° NNE visible
